owner,sensor,date,latitude,longitude,vertical_datum,sea_water_practical_salinity,qcFlag 
ENP,ioos.station.NOAA.NDBC:TPEF1:1,2019-06-01T00:00:00Z,25.4100,-80.9640,1.5,16.13,11111222 
ENP,ioos.station.NOAA.NDBC:TPEF1:1,2019-06-01T01:00:00Z,25.4100,-80.9640,1.5,16.13,11111222 
ENP,ioos.station.NOAA.NDBC:TPEF1:1,2019-06-01T03:00:00Z,25.4100,-80.9640,1.5,15.6,11111222 
ENP,ioos.station.NOAA.NDBC:TPEF1:1,2019-06-01T04:00:00Z,25.4100,-80.9640,1.5,15.4,11111222 
ENP,ioos.station.NOAA.NDBC:TPEF1:1,2019-06-01T05:00:00Z,25.4100,-80.9640,1.5,15.4,11111222 
ENP,ioos.station.NOAA.NDBC:TPEF1:1,2019-06-01T06:00:00Z,25.4100,-80.9640,1.5,15.4,11111222 
ENP,ioos.station.NOAA.NDBC:TPEF1:1,2019-06-01T07:00:00Z,25.4100,-80.9640,1.5,15.53,11111222 
ENP,ioos.station.NOAA.NDBC:TPEF1:1,2019-06-01T08:00:00Z,25.4100,-80.9640,1.5,15.66,11111222 
ENP,ioos.station.NOAA.NDBC:TPEF1:1,2019-06-01T09:00:00Z,25.4100,-80.9640,1.5,15.73,11111222 
ENP,ioos.station.NOAA.NDBC:TPEF1:1,2019-06-01T10:00:00Z,25.4100,-80.9640,1.5,15.73,11111222 
ENP,ioos.station.NOAA.NDBC:TPEF1:1,2019-06-01T11:00:00Z,25.4100,-80.9640,1.5,15.73,11111222 
ENP,ioos.station.NOAA.NDBC:TPEF1:1,2019-06-01T12:00:00Z,25.4100,-80.9640,1.5,15.66,11111222 
ENP,ioos.station.NOAA.NDBC:TPEF1:1,2019-06-01T13:00:00Z,25.4100,-80.9640,1.5,15.6,11111222 
ENP,ioos.station.NOAA.NDBC:TPEF1:1,2019-06-01T14:00:00Z,25.4100,-80.9640,1.5,15.6,11111222 
ENP,ioos.station.NOAA.NDBC:TPEF1:1,2019-06-01T15:00:00Z,25.4100,-80.9640,1.5,15.66,11111222 
ENP,ioos.station.NOAA.NDBC:TPEF1:1,2019-06-01T16:00:00Z,25.4100,-80.9640,1.5,15.53,11111222 
ENP,ioos.station.NOAA.NDBC:TPEF1:1,2019-06-01T17:00:00Z,25.4100,-80.9640,1.5,15.6,11111222 
ENP,ioos.station.NOAA.NDBC:TPEF1:1,2019-06-01T18:00:00Z,25.4100,-80.9640,1.5,15.6,11111222 
ENP,ioos.station.NOAA.NDBC:TPEF1:1,2019-06-01T19:00:00Z,25.4100,-80.9640,1.5,15.86,11111222 
ENP,ioos.station.NOAA.NDBC:TPEF1:1,2019-06-01T20:00:00Z,25.4100,-80.9640,1.5,15.8,11111222 
ENP,ioos.station.NOAA.NDBC:TPEF1:1,2019-06-01T21:00:00Z,25.4100,-80.9640,1.5,15.93,11111222 
ENP,ioos.station.NOAA.NDBC:TPEF1:1,2019-06-01T22:00:00Z,25.4100,-80.9640,1.5,16.06,11111222 
ENP,ioos.station.NOAA.NDBC:TPEF1:1,2019-06-01T23:00:00Z,25.4100,-80.9640,1.5,16.06,11111222 
ENP,ioos.station.NOAA.NDBC:TPEF1:1,2019-06-02T00:00:00Z,25.4100,-80.9640,1.5,16.33,11111222 
ENP,ioos.station.NOAA.NDBC:TPEF1:1,2019-06-02T01:00:00Z,25.4100,-80.9640,1.5,16.13,11111222 
ENP,ioos.station.NOAA.NDBC:TPEF1:1,2019-06-02T03:00:00Z,25.4100,-80.9640,1.5,16.13,11111222 
ENP,ioos.station.NOAA.NDBC:TPEF1:1,2019-06-02T04:00:00Z,25.4100,-80.9640,1.5,16.13,11111222 
ENP,ioos.station.NOAA.NDBC:TPEF1:1,2019-06-02T05:00:00Z,25.4100,-80.9640,1.5,16.4,11111222 
ENP,ioos.station.NOAA.NDBC:TPEF1:1,2019-06-02T06:00:00Z,25.4100,-80.9640,1.5,16.2,11111222 
ENP,ioos.station.NOAA.NDBC:TPEF1:1,2019-06-02T07:00:00Z,25.4100,-80.9640,1.5,16.2,11111222 
ENP,ioos.station.NOAA.NDBC:TPEF1:1,2019-06-02T08:00:00Z,25.4100,-80.9640,1.5,16.6,11111222 
ENP,ioos.station.NOAA.NDBC:TPEF1:1,2019-06-02T09:00:00Z,25.4100,-80.9640,1.5,16.73,11111222 
ENP,ioos.station.NOAA.NDBC:TPEF1:1,2019-06-02T10:00:00Z,25.4100,-80.9640,1.5,17.07,11111222 
ENP,ioos.station.NOAA.NDBC:TPEF1:1,2019-06-02T11:00:00Z,25.4100,-80.9640,1.5,17.14,11111222 
ENP,ioos.station.NOAA.NDBC:TPEF1:1,2019-06-02T12:00:00Z,25.4100,-80.9640,1.5,17.0,11111222 
ENP,ioos.station.NOAA.NDBC:TPEF1:1,2019-06-02T13:00:00Z,25.4100,-80.9640,1.5,17.34,11111222 
ENP,ioos.station.NOAA.NDBC:TPEF1:1,2019-06-02T14:00:00Z,25.4100,-80.9640,1.5,17.68,11111222 
ENP,ioos.station.NOAA.NDBC:TPEF1:1,2019-06-02T15:00:00Z,25.4100,-80.9640,1.5,17.75,11111222 
ENP,ioos.station.NOAA.NDBC:TPEF1:1,2019-06-02T16:00:00Z,25.4100,-80.9640,1.5,17.95,11111222 
ENP,ioos.station.NOAA.NDBC:TPEF1:1,2019-06-02T17:00:00Z,25.4100,-80.9640,1.5,17.95,11111222 
ENP,ioos.station.NOAA.NDBC:TPEF1:1,2019-06-02T18:00:00Z,25.4100,-80.9640,1.5,17.88,11111222 
ENP,ioos.station.NOAA.NDBC:TPEF1:1,2019-06-02T19:00:00Z,25.4100,-80.9640,1.5,17.21,11111222 
ENP,ioos.station.NOAA.NDBC:TPEF1:1,2019-06-02T20:00:00Z,25.4100,-80.9640,1.5,16.87,11111222 
ENP,ioos.station.NOAA.NDBC:TPEF1:1,2019-06-02T21:00:00Z,25.4100,-80.9640,1.5,16.87,11111222 
ENP,ioos.station.NOAA.NDBC:TPEF1:1,2019-06-02T22:00:00Z,25.4100,-80.9640,1.5,16.8,11111222 
ENP,ioos.station.NOAA.NDBC:TPEF1:1,2019-06-02T23:00:00Z,25.4100,-80.9640,1.5,16.8,11111222 
ENP,ioos.station.NOAA.NDBC:TPEF1:1,2019-06-03T01:00:00Z,25.4100,-80.9640,1.5,16.8,11111222 
ENP,ioos.station.NOAA.NDBC:TPEF1:1,2019-06-03T03:00:00Z,25.4100,-80.9640,1.5,16.94,11111222 
ENP,ioos.station.NOAA.NDBC:TPEF1:1,2019-06-03T04:00:00Z,25.4100,-80.9640,1.5,16.94,11111222 
ENP,ioos.station.NOAA.NDBC:TPEF1:1,2019-06-03T05:00:00Z,25.4100,-80.9640,1.5,16.94,11111222 
ENP,ioos.station.NOAA.NDBC:TPEF1:1,2019-06-03T06:00:00Z,25.4100,-80.9640,1.5,16.94,11111222 
ENP,ioos.station.NOAA.NDBC:TPEF1:1,2019-06-03T07:00:00Z,25.4100,-80.9640,1.5,16.87,11111222 
ENP,ioos.station.NOAA.NDBC:TPEF1:1,2019-06-03T08:00:00Z,25.4100,-80.9640,1.5,18.02,11111222 
ENP,ioos.station.NOAA.NDBC:TPEF1:1,2019-06-03T09:00:00Z,25.4100,-80.9640,1.5,18.76,11111222 
ENP,ioos.station.NOAA.NDBC:TPEF1:1,2019-06-03T10:00:00Z,25.4100,-80.9640,1.5,18.9,11111222 
ENP,ioos.station.NOAA.NDBC:TPEF1:1,2019-06-03T11:00:00Z,25.4100,-80.9640,1.5,18.9,11111222 
ENP,ioos.station.NOAA.NDBC:TPEF1:1,2019-06-03T12:00:00Z,25.4100,-80.9640,1.5,19.38,11111222 
ENP,ioos.station.NOAA.NDBC:TPEF1:1,2019-06-03T13:00:00Z,25.4100,-80.9640,1.5,19.65,11111222 
ENP,ioos.station.NOAA.NDBC:TPEF1:1,2019-06-03T14:00:00Z,25.4100,-80.9640,1.5,19.65,11111222 
ENP,ioos.station.NOAA.NDBC:TPEF1:1,2019-06-03T15:00:00Z,25.4100,-80.9640,1.5,19.65,11111222 
ENP,ioos.station.NOAA.NDBC:TPEF1:1,2019-06-03T16:00:00Z,25.4100,-80.9640,1.5,19.24,11111222 
ENP,ioos.station.NOAA.NDBC:TPEF1:1,2019-06-03T17:00:00Z,25.4100,-80.9640,1.5,20.06,11111222 
ENP,ioos.station.NOAA.NDBC:TPEF1:1,2019-06-03T18:00:00Z,25.4100,-80.9640,1.5,17.88,11111222 
ENP,ioos.station.NOAA.NDBC:TPEF1:1,2019-06-03T19:00:00Z,25.4100,-80.9640,1.5,17.88,11111222 
ENP,ioos.station.NOAA.NDBC:TPEF1:1,2019-06-03T20:00:00Z,25.4100,-80.9640,1.5,17.88,11111222 
ENP,ioos.station.NOAA.NDBC:TPEF1:1,2019-06-03T21:00:00Z,25.4100,-80.9640,1.5,18.02,11111222 
ENP,ioos.station.NOAA.NDBC:TPEF1:1,2019-06-03T22:00:00Z,25.4100,-80.9640,1.5,18.02,11111222 
ENP,ioos.station.NOAA.NDBC:TPEF1:1,2019-06-03T23:00:00Z,25.4100,-80.9640,1.5,18.15,11111222 
ENP,ioos.station.NOAA.NDBC:TPEF1:1,2019-06-04T01:00:00Z,25.4100,-80.9640,1.5,18.22,11111222 
ENP,ioos.station.NOAA.NDBC:TPEF1:1,2019-06-04T03:00:00Z,25.4100,-80.9640,1.5,18.56,11111222 
ENP,ioos.station.NOAA.NDBC:TPEF1:1,2019-06-04T04:00:00Z,25.4100,-80.9640,1.5,18.42,11111222 
ENP,ioos.station.NOAA.NDBC:TPEF1:1,2019-06-04T05:00:00Z,25.4100,-80.9640,1.5,18.42,11111222 
ENP,ioos.station.NOAA.NDBC:TPEF1:1,2019-06-04T06:00:00Z,25.4100,-80.9640,1.5,19.24,11111222 
ENP,ioos.station.NOAA.NDBC:TPEF1:1,2019-06-04T07:00:00Z,25.4100,-80.9640,1.5,19.04,11111222 
ENP,ioos.station.NOAA.NDBC:TPEF1:1,2019-06-04T08:00:00Z,25.4100,-80.9640,1.5,20.96,11111222 
ENP,ioos.station.NOAA.NDBC:TPEF1:1,2019-06-04T09:00:00Z,25.4100,-80.9640,1.5,21.79,11111222 
ENP,ioos.station.NOAA.NDBC:TPEF1:1,2019-06-04T10:00:00Z,25.4100,-80.9640,1.5,21.99,11111222 
ENP,ioos.station.NOAA.NDBC:TPEF1:1,2019-06-04T11:00:00Z,25.4100,-80.9640,1.5,21.93,11111222 
ENP,ioos.station.NOAA.NDBC:TPEF1:1,2019-06-04T12:00:00Z,25.4100,-80.9640,1.5,21.44,11111222 
ENP,ioos.station.NOAA.NDBC:TPEF1:1,2019-06-04T13:00:00Z,25.4100,-80.9640,1.5,21.5,11111222 
ENP,ioos.station.NOAA.NDBC:TPEF1:1,2019-06-04T14:00:00Z,25.4100,-80.9640,1.5,21.9,11111222 
ENP,ioos.station.NOAA.NDBC:TPEF1:1,2019-06-04T15:00:00Z,25.4100,-80.9640,1.5,21.9,11111222 
ENP,ioos.station.NOAA.NDBC:TPEF1:1,2019-06-04T16:00:00Z,25.4100,-80.9640,1.5,22.27,11111222 
ENP,ioos.station.NOAA.NDBC:TPEF1:1,2019-06-04T17:00:00Z,25.4100,-80.9640,1.5,22.62,11111222 
ENP,ioos.station.NOAA.NDBC:TPEF1:1,2019-06-04T18:00:00Z,25.4100,-80.9640,1.5,21.58,11111222 
ENP,ioos.station.NOAA.NDBC:TPEF1:1,2019-06-04T19:00:00Z,25.4100,-80.9640,1.5,21.79,11111222 
ENP,ioos.station.NOAA.NDBC:TPEF1:1,2019-06-04T20:00:00Z,25.4100,-80.9640,1.5,22.27,11111222 
ENP,ioos.station.NOAA.NDBC:TPEF1:1,2019-06-04T21:00:00Z,25.4100,-80.9640,1.5,23.67,11111222 
ENP,ioos.station.NOAA.NDBC:TPEF1:1,2019-06-04T22:00:00Z,25.4100,-80.9640,1.5,24.16,11111222 
ENP,ioos.station.NOAA.NDBC:TPEF1:1,2019-06-04T23:00:00Z,25.4100,-80.9640,1.5,22.97,11111222 
ENP,ioos.station.NOAA.NDBC:TPEF1:1,2019-06-05T00:00:00Z,25.4100,-80.9640,1.5,23.6,11111222 
ENP,ioos.station.NOAA.NDBC:TPEF1:1,2019-06-11T10:00:00Z,25.4100,-80.9640,1.5,19.86,11111222 
ENP,ioos.station.NOAA.NDBC:TPEF1:1,2019-06-13T12:00:00Z,25.4100,-80.9640,1.5,17.2,11111222 
ENP,ioos.station.NOAA.NDBC:TPEF1:1,2019-06-13T13:00:00Z,25.4100,-80.9640,1.5,16.33,11111222 
ENP,ioos.station.NOAA.NDBC:TPEF1:1,2019-06-13T14:00:00Z,25.4100,-80.9640,1.5,16.06,11111222 
ENP,ioos.station.NOAA.NDBC:TPEF1:1,2019-06-13T15:00:00Z,25.4100,-80.9640,1.5,16.06,11111222 
ENP,ioos.station.NOAA.NDBC:TPEF1:1,2019-06-13T16:00:00Z,25.4100,-80.9640,1.5,16.0,11111222 
ENP,ioos.station.NOAA.NDBC:TPEF1:1,2019-06-13T17:00:00Z,25.4100,-80.9640,1.5,16.4,11111222 
ENP,ioos.station.NOAA.NDBC:TPEF1:1,2019-06-13T18:00:00Z,25.4100,-80.9640,1.5,16.67,11111222 
ENP,ioos.station.NOAA.NDBC:TPEF1:1,2019-06-13T19:00:00Z,25.4100,-80.9640,1.5,17.34,11111222 
ENP,ioos.station.NOAA.NDBC:TPEF1:1,2019-06-13T20:00:00Z,25.4100,-80.9640,1.5,17.68,11111222 
ENP,ioos.station.NOAA.NDBC:TPEF1:1,2019-06-13T21:00:00Z,25.4100,-80.9640,1.5,17.07,11111222 
ENP,ioos.station.NOAA.NDBC:TPEF1:1,2019-06-13T23:00:00Z,25.4100,-80.9640,1.5,16.6,11111222 
ENP,ioos.station.NOAA.NDBC:TPEF1:1,2019-06-14T01:00:00Z,25.4100,-80.9640,1.5,16.47,11111222 
ENP,ioos.station.NOAA.NDBC:TPEF1:1,2019-06-14T03:00:00Z,25.4100,-80.9640,1.5,16.47,11111222 
ENP,ioos.station.NOAA.NDBC:TPEF1:1,2019-06-14T04:00:00Z,25.4100,-80.9640,1.5,16.26,11111222 
ENP,ioos.station.NOAA.NDBC:TPEF1:1,2019-06-14T05:00:00Z,25.4100,-80.9640,1.5,16.13,11111222 
ENP,ioos.station.NOAA.NDBC:TPEF1:1,2019-06-14T06:00:00Z,25.4100,-80.9640,1.5,16.06,11111222 
ENP,ioos.station.NOAA.NDBC:TPEF1:1,2019-06-14T07:00:00Z,25.4100,-80.9640,1.5,15.93,11111222 
ENP,ioos.station.NOAA.NDBC:TPEF1:1,2019-06-14T08:00:00Z,25.4100,-80.9640,1.5,15.86,11111222 
ENP,ioos.station.NOAA.NDBC:TPEF1:1,2019-06-14T09:00:00Z,25.4100,-80.9640,1.5,16.13,11111222 
ENP,ioos.station.NOAA.NDBC:TPEF1:1,2019-06-14T10:00:00Z,25.4100,-80.9640,1.5,15.86,11111222 
ENP,ioos.station.NOAA.NDBC:TPEF1:1,2019-06-14T11:00:00Z,25.4100,-80.9640,1.5,15.8,11111222 
ENP,ioos.station.NOAA.NDBC:TPEF1:1,2019-06-14T12:00:00Z,25.4100,-80.9640,1.5,15.8,11111222 
ENP,ioos.station.NOAA.NDBC:TPEF1:1,2019-06-14T13:00:00Z,25.4100,-80.9640,1.5,15.66,11111222 
ENP,ioos.station.NOAA.NDBC:TPEF1:1,2019-06-14T14:00:00Z,25.4100,-80.9640,1.5,15.26,11111222 
ENP,ioos.station.NOAA.NDBC:TPEF1:1,2019-06-14T15:00:00Z,25.4100,-80.9640,1.5,15.13,11111222 
ENP,ioos.station.NOAA.NDBC:TPEF1:1,2019-06-14T16:00:00Z,25.4100,-80.9640,1.5,15.66,11111222 
ENP,ioos.station.NOAA.NDBC:TPEF1:1,2019-06-14T17:00:00Z,25.4100,-80.9640,1.5,15.26,11111222 
ENP,ioos.station.NOAA.NDBC:TPEF1:1,2019-06-14T18:00:00Z,25.4100,-80.9640,1.5,15.46,11111222 
ENP,ioos.station.NOAA.NDBC:TPEF1:1,2019-06-14T19:00:00Z,25.4100,-80.9640,1.5,15.46,11111222 
ENP,ioos.station.NOAA.NDBC:TPEF1:1,2019-06-14T20:00:00Z,25.4100,-80.9640,1.5,15.4,11111222 
ENP,ioos.station.NOAA.NDBC:TPEF1:1,2019-06-14T21:00:00Z,25.4100,-80.9640,1.5,15.46,11111222 
ENP,ioos.station.NOAA.NDBC:TPEF1:1,2019-06-14T22:00:00Z,25.4100,-80.9640,1.5,14.33,11111222 
ENP,ioos.station.NOAA.NDBC:TPEF1:1,2019-06-14T23:00:00Z,25.4100,-80.9640,1.5,15.26,11111222 
ENP,ioos.station.NOAA.NDBC:TPEF1:1,2019-06-15T00:00:00Z,25.4100,-80.9640,1.5,14.6,11111222 
ENP,ioos.station.NOAA.NDBC:TPEF1:1,2019-06-15T01:00:00Z,25.4100,-80.9640,1.5,15.33,11111222 
ENP,ioos.station.NOAA.NDBC:TPEF1:1,2019-06-15T03:00:00Z,25.4100,-80.9640,1.5,13.94,11111222 
ENP,ioos.station.NOAA.NDBC:TPEF1:1,2019-06-15T04:00:00Z,25.4100,-80.9640,1.5,13.8,11111222 
ENP,ioos.station.NOAA.NDBC:TPEF1:1,2019-06-15T05:00:00Z,25.4100,-80.9640,1.5,13.54,11111222 
ENP,ioos.station.NOAA.NDBC:TPEF1:1,2019-06-15T06:00:00Z,25.4100,-80.9640,1.5,13.15,11111222 
ENP,ioos.station.NOAA.NDBC:TPEF1:1,2019-06-15T07:00:00Z,25.4100,-80.9640,1.5,13.61,11111222 
ENP,ioos.station.NOAA.NDBC:TPEF1:1,2019-06-15T08:00:00Z,25.4100,-80.9640,1.5,13.02,11111222 
ENP,ioos.station.NOAA.NDBC:TPEF1:1,2019-06-15T09:00:00Z,25.4100,-80.9640,1.5,12.82,11111222 
ENP,ioos.station.NOAA.NDBC:TPEF1:1,2019-06-15T10:00:00Z,25.4100,-80.9640,1.5,12.82,11111222 
ENP,ioos.station.NOAA.NDBC:TPEF1:1,2019-06-15T11:00:00Z,25.4100,-80.9640,1.5,12.82,11111222 
ENP,ioos.station.NOAA.NDBC:TPEF1:1,2019-06-15T12:00:00Z,25.4100,-80.9640,1.5,12.88,11111222 
ENP,ioos.station.NOAA.NDBC:TPEF1:1,2019-06-15T13:00:00Z,25.4100,-80.9640,1.5,12.82,11111222 
ENP,ioos.station.NOAA.NDBC:TPEF1:1,2019-06-15T14:00:00Z,25.4100,-80.9640,1.5,12.69,11111222 
ENP,ioos.station.NOAA.NDBC:TPEF1:1,2019-06-15T15:00:00Z,25.4100,-80.9640,1.5,12.75,11111222 
ENP,ioos.station.NOAA.NDBC:TPEF1:1,2019-06-15T16:00:00Z,25.4100,-80.9640,1.5,12.62,11111222 
ENP,ioos.station.NOAA.NDBC:TPEF1:1,2019-06-15T17:00:00Z,25.4100,-80.9640,1.5,13.02,11111222 
ENP,ioos.station.NOAA.NDBC:TPEF1:1,2019-06-15T18:00:00Z,25.4100,-80.9640,1.5,12.36,11111222 
ENP,ioos.station.NOAA.NDBC:TPEF1:1,2019-06-15T19:00:00Z,25.4100,-80.9640,1.5,12.17,11111222 
ENP,ioos.station.NOAA.NDBC:TPEF1:1,2019-06-15T20:00:00Z,25.4100,-80.9640,1.5,13.47,11111222 
ENP,ioos.station.NOAA.NDBC:TPEF1:1,2019-06-15T21:00:00Z,25.4100,-80.9640,1.5,12.75,11111222 
ENP,ioos.station.NOAA.NDBC:TPEF1:1,2019-06-15T22:00:00Z,25.4100,-80.9640,1.5,12.95,11111222 
ENP,ioos.station.NOAA.NDBC:TPEF1:1,2019-06-16T00:00:00Z,25.4100,-80.9640,1.5,12.36,11111222 
ENP,ioos.station.NOAA.NDBC:TPEF1:1,2019-06-16T01:00:00Z,25.4100,-80.9640,1.5,12.36,11111222 
ENP,ioos.station.NOAA.NDBC:TPEF1:1,2019-06-16T03:00:00Z,25.4100,-80.9640,1.5,12.49,11111222 
ENP,ioos.station.NOAA.NDBC:TPEF1:1,2019-06-16T04:00:00Z,25.4100,-80.9640,1.5,12.36,11111222 
ENP,ioos.station.NOAA.NDBC:TPEF1:1,2019-06-16T05:00:00Z,25.4100,-80.9640,1.5,12.1,11111222 
ENP,ioos.station.NOAA.NDBC:TPEF1:1,2019-06-16T06:00:00Z,25.4100,-80.9640,1.5,11.32,11111222 
ENP,ioos.station.NOAA.NDBC:TPEF1:1,2019-06-16T07:00:00Z,25.4100,-80.9640,1.5,11.71,11111222 
ENP,ioos.station.NOAA.NDBC:TPEF1:1,2019-06-16T08:00:00Z,25.4100,-80.9640,1.5,11.26,11111222 
ENP,ioos.station.NOAA.NDBC:TPEF1:1,2019-06-16T09:00:00Z,25.4100,-80.9640,1.5,11.26,11111222 
ENP,ioos.station.NOAA.NDBC:TPEF1:1,2019-06-16T10:00:00Z,25.4100,-80.9640,1.5,11.71,11111222 
ENP,ioos.station.NOAA.NDBC:TPEF1:1,2019-06-16T11:00:00Z,25.4100,-80.9640,1.5,12.04,11111222 
ENP,ioos.station.NOAA.NDBC:TPEF1:1,2019-06-16T12:00:00Z,25.4100,-80.9640,1.5,11.97,11111222 
ENP,ioos.station.NOAA.NDBC:TPEF1:1,2019-06-16T13:00:00Z,25.4100,-80.9640,1.5,11.84,11111222 
ENP,ioos.station.NOAA.NDBC:TPEF1:1,2019-06-16T14:00:00Z,25.4100,-80.9640,1.5,11.52,11111222 
ENP,ioos.station.NOAA.NDBC:TPEF1:1,2019-06-16T15:00:00Z,25.4100,-80.9640,1.5,11.0,11111222 
ENP,ioos.station.NOAA.NDBC:TPEF1:1,2019-06-16T16:00:00Z,25.4100,-80.9640,1.5,10.48,11111222 
ENP,ioos.station.NOAA.NDBC:TPEF1:1,2019-06-16T17:00:00Z,25.4100,-80.9640,1.5,11.13,11111222 
ENP,ioos.station.NOAA.NDBC:TPEF1:1,2019-06-16T18:00:00Z,25.4100,-80.9640,1.5,11.26,11111222 
ENP,ioos.station.NOAA.NDBC:TPEF1:1,2019-06-16T19:00:00Z,25.4100,-80.9640,1.5,11.39,11111222 
ENP,ioos.station.NOAA.NDBC:TPEF1:1,2019-06-16T20:00:00Z,25.4100,-80.9640,1.5,11.45,11111222 
ENP,ioos.station.NOAA.NDBC:TPEF1:1,2019-06-16T21:00:00Z,25.4100,-80.9640,1.5,11.65,11111222 
ENP,ioos.station.NOAA.NDBC:TPEF1:1,2019-06-16T22:00:00Z,25.4100,-80.9640,1.5,11.52,11111222 
ENP,ioos.station.NOAA.NDBC:TPEF1:1,2019-06-16T23:00:00Z,25.4100,-80.9640,1.5,11.71,11111222 
ENP,ioos.station.NOAA.NDBC:TPEF1:1,2019-06-17T00:00:00Z,25.4100,-80.9640,1.5,11.71,11111222 
ENP,ioos.station.NOAA.NDBC:TPEF1:1,2019-06-17T01:00:00Z,25.4100,-80.9640,1.5,11.84,11111222 
ENP,ioos.station.NOAA.NDBC:TPEF1:1,2019-06-17T03:00:00Z,25.4100,-80.9640,1.5,11.0,11111222 
ENP,ioos.station.NOAA.NDBC:TPEF1:1,2019-06-17T04:00:00Z,25.4100,-80.9640,1.5,10.81,11111222 
ENP,ioos.station.NOAA.NDBC:TPEF1:1,2019-06-17T05:00:00Z,25.4100,-80.9640,1.5,10.74,11111222 
ENP,ioos.station.NOAA.NDBC:TPEF1:1,2019-06-17T06:00:00Z,25.4100,-80.9640,1.5,10.55,11111222 
ENP,ioos.station.NOAA.NDBC:TPEF1:1,2019-06-17T07:00:00Z,25.4100,-80.9640,1.5,9.65,11111222 
ENP,ioos.station.NOAA.NDBC:TPEF1:1,2019-06-17T08:00:00Z,25.4100,-80.9640,1.5,9.97,11111222 
ENP,ioos.station.NOAA.NDBC:TPEF1:1,2019-06-17T09:00:00Z,25.4100,-80.9640,1.5,9.46,11111222 
ENP,ioos.station.NOAA.NDBC:TPEF1:1,2019-06-17T10:00:00Z,25.4100,-80.9640,1.5,10.23,11111222 
ENP,ioos.station.NOAA.NDBC:TPEF1:1,2019-06-17T11:00:00Z,25.4100,-80.9640,1.5,10.29,11111222 
ENP,ioos.station.NOAA.NDBC:TPEF1:1,2019-06-17T12:00:00Z,25.4100,-80.9640,1.5,9.91,11111222 
ENP,ioos.station.NOAA.NDBC:TPEF1:1,2019-06-17T13:00:00Z,25.4100,-80.9640,1.5,9.65,11111222 
ENP,ioos.station.NOAA.NDBC:TPEF1:1,2019-06-17T14:00:00Z,25.4100,-80.9640,1.5,9.91,11111222 
ENP,ioos.station.NOAA.NDBC:TPEF1:1,2019-06-17T15:00:00Z,25.4100,-80.9640,1.5,9.46,11111222 
ENP,ioos.station.NOAA.NDBC:TPEF1:1,2019-06-17T16:00:00Z,25.4100,-80.9640,1.5,9.46,11111222 
ENP,ioos.station.NOAA.NDBC:TPEF1:1,2019-06-17T17:00:00Z,25.4100,-80.9640,1.5,9.4,11111222 
ENP,ioos.station.NOAA.NDBC:TPEF1:1,2019-06-17T18:00:00Z,25.4100,-80.9640,1.5,9.27,11111222 
ENP,ioos.station.NOAA.NDBC:TPEF1:1,2019-06-17T19:00:00Z,25.4100,-80.9640,1.5,9.02,11111222 
ENP,ioos.station.NOAA.NDBC:TPEF1:1,2019-06-17T20:00:00Z,25.4100,-80.9640,1.5,9.65,11111222 
ENP,ioos.station.NOAA.NDBC:TPEF1:1,2019-06-17T21:00:00Z,25.4100,-80.9640,1.5,9.59,11111222 
ENP,ioos.station.NOAA.NDBC:TPEF1:1,2019-06-17T22:00:00Z,25.4100,-80.9640,1.5,9.02,11111222 
ENP,ioos.station.NOAA.NDBC:TPEF1:1,2019-06-18T00:00:00Z,25.4100,-80.9640,1.5,9.46,11111222 
ENP,ioos.station.NOAA.NDBC:TPEF1:1,2019-06-18T01:00:00Z,25.4100,-80.9640,1.5,9.59,11111222 
ENP,ioos.station.NOAA.NDBC:TPEF1:1,2019-06-18T03:00:00Z,25.4100,-80.9640,1.5,9.34,11111222 
ENP,ioos.station.NOAA.NDBC:TPEF1:1,2019-06-18T04:00:00Z,25.4100,-80.9640,1.5,9.34,11111222 
ENP,ioos.station.NOAA.NDBC:TPEF1:1,2019-06-18T05:00:00Z,25.4100,-80.9640,1.5,9.27,11111222 
ENP,ioos.station.NOAA.NDBC:TPEF1:1,2019-06-18T06:00:00Z,25.4100,-80.9640,1.5,9.08,11111222 
ENP,ioos.station.NOAA.NDBC:TPEF1:1,2019-06-18T07:00:00Z,25.4100,-80.9640,1.5,9.08,11111222 
ENP,ioos.station.NOAA.NDBC:TPEF1:1,2019-06-18T08:00:00Z,25.4100,-80.9640,1.5,9.02,11111222 
ENP,ioos.station.NOAA.NDBC:TPEF1:1,2019-06-18T09:00:00Z,25.4100,-80.9640,1.5,8.96,11111222 
ENP,ioos.station.NOAA.NDBC:TPEF1:1,2019-06-18T10:00:00Z,25.4100,-80.9640,1.5,8.89,11111222 
ENP,ioos.station.NOAA.NDBC:TPEF1:1,2019-06-18T11:00:00Z,25.4100,-80.9640,1.5,8.83,11111222 
ENP,ioos.station.NOAA.NDBC:TPEF1:1,2019-06-18T12:00:00Z,25.4100,-80.9640,1.5,8.83,11111222 
ENP,ioos.station.NOAA.NDBC:TPEF1:1,2019-06-18T13:00:00Z,25.4100,-80.9640,1.5,8.83,11111222 
ENP,ioos.station.NOAA.NDBC:TPEF1:1,2019-06-18T14:00:00Z,25.4100,-80.9640,1.5,8.83,11111222 
ENP,ioos.station.NOAA.NDBC:TPEF1:1,2019-06-18T15:00:00Z,25.4100,-80.9640,1.5,8.7,11111222 
ENP,ioos.station.NOAA.NDBC:TPEF1:1,2019-06-18T16:00:00Z,25.4100,-80.9640,1.5,8.45,11111222 
ENP,ioos.station.NOAA.NDBC:TPEF1:1,2019-06-18T17:00:00Z,25.4100,-80.9640,1.5,8.26,11111222 
ENP,ioos.station.NOAA.NDBC:TPEF1:1,2019-06-18T18:00:00Z,25.4100,-80.9640,1.5,8.1,11111222 
ENP,ioos.station.NOAA.NDBC:TPEF1:1,2019-06-18T19:00:00Z,25.4100,-80.9640,1.5,8.1,11111222 
ENP,ioos.station.NOAA.NDBC:TPEF1:1,2019-06-18T20:00:00Z,25.4100,-80.9640,1.5,8.12,11111222 
ENP,ioos.station.NOAA.NDBC:TPEF1:1,2019-06-18T21:00:00Z,25.4100,-80.9640,1.5,8.1,11111222 
ENP,ioos.station.NOAA.NDBC:TPEF1:1,2019-06-18T22:00:00Z,25.4100,-80.9640,1.5,8.1,11111222 
ENP,ioos.station.NOAA.NDBC:TPEF1:1,2019-06-18T23:00:00Z,25.4100,-80.9640,1.5,8.16,11111222 
ENP,ioos.station.NOAA.NDBC:TPEF1:1,2019-06-19T01:00:00Z,25.4100,-80.9640,1.5,8.21,11111222 
ENP,ioos.station.NOAA.NDBC:TPEF1:1,2019-06-19T03:00:00Z,25.4100,-80.9640,1.5,8.2,11111222 
ENP,ioos.station.NOAA.NDBC:TPEF1:1,2019-06-19T04:00:00Z,25.4100,-80.9640,1.5,7.8,11111222 
ENP,ioos.station.NOAA.NDBC:TPEF1:1,2019-06-19T05:00:00Z,25.4100,-80.9640,1.5,7.74,11111222 
ENP,ioos.station.NOAA.NDBC:TPEF1:1,2019-06-19T06:00:00Z,25.4100,-80.9640,1.5,7.7,11111222 
ENP,ioos.station.NOAA.NDBC:TPEF1:1,2019-06-19T07:00:00Z,25.4100,-80.9640,1.5,7.6,11111222 
ENP,ioos.station.NOAA.NDBC:TPEF1:1,2019-06-19T08:00:00Z,25.4100,-80.9640,1.5,7.43,11111222 
ENP,ioos.station.NOAA.NDBC:TPEF1:1,2019-06-19T09:00:00Z,25.4100,-80.9640,1.5,7.3,11111222 
ENP,ioos.station.NOAA.NDBC:TPEF1:1,2019-06-19T10:00:00Z,25.4100,-80.9640,1.5,7.3,11111222 
ENP,ioos.station.NOAA.NDBC:TPEF1:1,2019-06-19T11:00:00Z,25.4100,-80.9640,1.5,7.27,11111222 
ENP,ioos.station.NOAA.NDBC:TPEF1:1,2019-06-19T12:00:00Z,25.4100,-80.9640,1.5,7.3,11111222 
ENP,ioos.station.NOAA.NDBC:TPEF1:1,2019-06-19T13:00:00Z,25.4100,-80.9640,1.5,7.5,11111222 
ENP,ioos.station.NOAA.NDBC:TPEF1:1,2019-06-19T14:00:00Z,25.4100,-80.9640,1.5,7.52,11111222 
ENP,ioos.station.NOAA.NDBC:TPEF1:1,2019-06-19T15:00:00Z,25.4100,-80.9640,1.5,7.6,11111222 
ENP,ioos.station.NOAA.NDBC:TPEF1:1,2019-06-19T16:00:00Z,25.4100,-80.9640,1.5,7.5,11111222 
ENP,ioos.station.NOAA.NDBC:TPEF1:1,2019-06-19T17:00:00Z,25.4100,-80.9640,1.5,7.32,11111222 
ENP,ioos.station.NOAA.NDBC:TPEF1:1,2019-06-19T18:00:00Z,25.4100,-80.9640,1.5,7.3,11111222 
ENP,ioos.station.NOAA.NDBC:TPEF1:1,2019-06-19T19:00:00Z,25.4100,-80.9640,1.5,7.1,11111222 
ENP,ioos.station.NOAA.NDBC:TPEF1:1,2019-06-19T20:00:00Z,25.4100,-80.9640,1.5,7.18,11111222 
ENP,ioos.station.NOAA.NDBC:TPEF1:1,2019-06-19T22:00:00Z,25.4100,-80.9640,1.5,7.3,11111222 
ENP,ioos.station.NOAA.NDBC:TPEF1:1,2019-06-19T23:00:00Z,25.4100,-80.9640,1.5,7.47,11111222 
ENP,ioos.station.NOAA.NDBC:TPEF1:1,2019-06-20T01:00:00Z,25.4100,-80.9640,1.5,7.42,11111222 
ENP,ioos.station.NOAA.NDBC:TPEF1:1,2019-06-20T03:00:00Z,25.4100,-80.9640,1.5,7.4,11111222 
ENP,ioos.station.NOAA.NDBC:TPEF1:1,2019-06-20T04:00:00Z,25.4100,-80.9640,1.5,7.4,11111222 
ENP,ioos.station.NOAA.NDBC:TPEF1:1,2019-06-20T05:00:00Z,25.4100,-80.9640,1.5,7.39,11111222 
ENP,ioos.station.NOAA.NDBC:TPEF1:1,2019-06-20T06:00:00Z,25.4100,-80.9640,1.5,7.3,11111222 
ENP,ioos.station.NOAA.NDBC:TPEF1:1,2019-06-20T07:00:00Z,25.4100,-80.9640,1.5,7.1,11111222 
ENP,ioos.station.NOAA.NDBC:TPEF1:1,2019-06-20T08:00:00Z,25.4100,-80.9640,1.5,7.03,11111222 
ENP,ioos.station.NOAA.NDBC:TPEF1:1,2019-06-20T09:00:00Z,25.4100,-80.9640,1.5,6.5,11111222 
ENP,ioos.station.NOAA.NDBC:TPEF1:1,2019-06-20T10:00:00Z,25.4100,-80.9640,1.5,6.6,11111222 
ENP,ioos.station.NOAA.NDBC:TPEF1:1,2019-06-20T11:00:00Z,25.4100,-80.9640,1.5,6.46,11111222 
ENP,ioos.station.NOAA.NDBC:TPEF1:1,2019-06-20T12:00:00Z,25.4100,-80.9640,1.5,6.1,11111222 
ENP,ioos.station.NOAA.NDBC:TPEF1:1,2019-06-20T13:00:00Z,25.4100,-80.9640,1.5,6.7,11111222 
ENP,ioos.station.NOAA.NDBC:TPEF1:1,2019-06-20T14:00:00Z,25.4100,-80.9640,1.5,6.85,11111222 
ENP,ioos.station.NOAA.NDBC:TPEF1:1,2019-06-20T15:00:00Z,25.4100,-80.9640,1.5,6.8,11111222 
ENP,ioos.station.NOAA.NDBC:TPEF1:1,2019-06-20T16:00:00Z,25.4100,-80.9640,1.5,6.3,11111222 
ENP,ioos.station.NOAA.NDBC:TPEF1:1,2019-06-20T17:00:00Z,25.4100,-80.9640,1.5,6.57,11111222 
ENP,ioos.station.NOAA.NDBC:TPEF1:1,2019-06-20T18:00:00Z,25.4100,-80.9640,1.5,6.0,11111222 
ENP,ioos.station.NOAA.NDBC:TPEF1:1,2019-06-20T19:00:00Z,25.4100,-80.9640,1.5,6.0,11111222 
ENP,ioos.station.NOAA.NDBC:TPEF1:1,2019-06-20T20:00:00Z,25.4100,-80.9640,1.5,5.8,11111222 
ENP,ioos.station.NOAA.NDBC:TPEF1:1,2019-06-20T21:00:00Z,25.4100,-80.9640,1.5,5.5,11111222 
ENP,ioos.station.NOAA.NDBC:TPEF1:1,2019-06-20T22:00:00Z,25.4100,-80.9640,1.5,5.3,11111222 
ENP,ioos.station.NOAA.NDBC:TPEF1:1,2019-06-20T23:00:00Z,25.4100,-80.9640,1.5,5.19,11111222 